Location: White Ridge parking lot
(35.4984°N, 106.8413°W)
Time: 04:32:17
(UTC-06:00)

ISS - Visible Passes

Search period start: 20 July 2019 00:00
Search period end: 30 July 2019 00:00
Orbit: 409 x 418 km, 51.6° (Epoch: 20 July)

Date Brightness Start Highest point End Pass type
(mag) Time Alt. Az. Time Alt. Az. Time Alt. Az.
20 Jul -1.8 04:33:23 17° SSE 04:33:23 17° SSE 04:34:16 10° SSE visible
20 Jul -1.4 21:08:01 10° W 21:10:56 28° NW 21:13:52 10° NNE visible
22 Jul -0.6 21:07:29 10° WNW 21:09:16 14° NNW 21:11:02 10° N visible
27 Jul -0.4 23:30:39 10° N 23:31:07 12° N 23:31:07 12° N visible
28 Jul -0.8 22:42:11 10° N 22:43:04 11° NNE 22:43:18 11° NNE visible
29 Jul -0.5 23:27:47 10° NNW 23:28:19 13° NNW 23:28:19 13° NNW visible
